Location: Ferchesar
(52.6477°N, 12.4298°E)
Time: 03:49:51
(UTC+02:00)

Vanguard 3 - Pass Details

Date: 07 March 2021
Orbit: 508 x 3262 km, 33.3° (Epoch: 15 April)

Event Time Altitude Azimuth Distance (km) Brightness Sun altitude
Rises 19:51:33 0° 270° (W) 6,761 13.3 -17.5°
Reaches altitude 10° 19:58:49 10° 253° (WSW) 5,247 12.1 -18.6°
Maximum altitude 20:06:18 16° 222° (SW) 4,077 11.0 -19.7°
Drops below altitude 10° 20:12:12 10° 189° (S) 3,941 10.5 -20.5°
Enters shadow 20:16:17 - 169° (S) 4,405 10.6 -21.1°
Sets 20:16:26 0° 169° (SSE) 4,428 - -21.1°
